Regional Weather Roundup
Issued by NWS Midland/Odessa, TX

Skip options and go directly to product.
Home | Oldest Version | Previous Version | Current Version | All | Text Only | Save Text | Print | Product List | Glossary On

Skip product version selection by date and time.   
915
ASUS44 KMAF 041510
RWRMAF
MIDLAND AREA WEATHER ROUNDUP
NATIONAL WEATHER SERVICE MIDLAND TX
900 AM CST WED MAR 04 2015

...IN SOUTHWEST TEXAS AND SOUTHEAST NEW MEXICO...

CITY           SKY/WX    TMP DP  RH WIND       PRES   REMARKS
ALPINE         CLOUDY    47  44  89 CALM      30.00R
ANDREWS        CLOUDY    51  45  80 NW8       29.93R
ARTESIA        PTSUNNY   45  43  93 N12G18    29.90R WCI  39
BIG SPRING     CLOUDY    54  51  91 N9        29.96R
CARLSBAD       LGT RAIN  51  42  71 SE3       29.89R
DRYDEN           N/A     52  51  97 CALM      29.87R
FORT STOCKTON  CLOUDY    53  47  79 N12       29.92R
GUAD PASS      NOT AVBL
HOBBS          LGT RAIN  48  48 100 W10       29.94R
MARFA          CLOUDY    52  45  76 N7        29.95R
MIDLAND AIRPK  CLOUDY    52  48  87 N9        29.92R
MIDLAND INTL   CLOUDY    52  46  80 NW14      29.92R
ODESSA         CLOUDY    53  44  71 N12       29.92R
PECOS          CLOUDY    50  47  89 S3        29.92R
PRESIDIO       FAIR      59  49  71 NW7       29.86R
SEMINOLE       LGT RAIN  49  46  87 NW7       29.94R
SNYDER         LGT RAIN  38  37  99 N18G29    29.99R WCI  28
WINK           CLOUDY    54  45  71 N6        29.89R
$$
...OTHER STATIONS IN TEXAS...

CITY           SKY/WX    TMP DP  RH WIND       PRES   REMARKS
ABILENE        LGT RAIN  46  45  96 N18       29.95R VSB 1/4 WCI  39
AMARILLO       CLOUDY    22  21  96 NE21      30.09R FOG     WCI   6
AUSTIN         FOG       60  60 100 CALM      29.85R VSB 1/4
BROWNSVILLE    CLOUDY    72  69  90 SE22      29.84R FOG
CORPUS CHRISTI CLOUDY    69  67  93 S15       29.84R FOG
DALLAS FTW     RAIN      48  47  96 N14       29.94R FOG
DEL RIO        CLOUDY    58  53  84 NW5       29.84R
EL PASO        MOSUNNY   51  39  63 SW9       29.91R
HOUSTON INT    CLOUDY    72  67  84 S13       29.91R
LUBBOCK        CLOUDY    33  33 100 NE20G26   29.99R FOG     WCI  21
SAN ANGELO     CLOUDY    53  50  89 CALM      29.90R
SAN ANTONIO    DRZL/FOG  65  64  97 S5        29.85R VSB 1
WACO           FOG       54  54 100 N7        29.88R VSB 1/4
WICHITA FALLS  NOT AVBL
$$
...OTHER LOCATIONS IN NEW MEXICO...

CITY           SKY/WX    TMP DP  RH WIND       PRES   REMARKS
ALAMAGORDO     SUNNY     46  41  81 S6        29.92R
ALBUQUERQUE    MOSUNNY   37  28  70 N6        29.94R WCI  32
CANNON AFB     CLOUDY    29  29  99 NE17G25   29.98R FOG     WCI  17
CLOVIS         CLOUDY    28  27  93 NE18      30.01R VSB 1/2 WCI  16
HOLLOMAN AFB   SUNNY     49  43  80 S9        29.89R
ROSWELL        PTSUNNY   41  36  82 N20       29.92R WCI  32
RUIDOSO        MOSUNNY   37  25  60 CALM      29.95R
SANTA FE       SUNNY     30  24  78 CALM      29.91R
TRUTH OR CONSE MOSUNNY   43  27  53 N7        29.92R WCI  39
TUCUMCARI      CLOUDY    28  25  88 NE22      30.03R FOG     WCI  14
$$

USA.gov is the U.S. government's official web portal to all federal, state and local government web resources and services.